User: anonymous   Login
Location: Mentone
(34.5413°N, 85.5351°W)
Time: 18:55:06
(UTC-05:00)
Language:

Cosmos 1703 - Orbit

View from above orbital plane
View from above orbital plane
View from above satellite
View from above satellite

Ground track
Ground track

The orbit data is extracted from the following two-line orbital elements,

1 16262U 85108A   17082.88575252 +.00000521 +00000-0 +29969-4 0  9996
2 16262 082.4844 333.7232 0011386 206.2057 153.8598 15.10258918705767
Epoch (UTC): 23 March 2017 21:15:29
Eccentricity: 0.0011386
inclination: 82.4844°
perigee height: 527 km
apogee height: 543 km
right ascension of ascending node: 333.7232°
argument of perigee: 206.2057°
revolutions per day: 15.10258918
mean anomaly at epoch: 153.8598°
orbit number at epoch: 70576

The dashed part of the orbit path shows where the satellite is in the earth's shadow,  

DLR